Location: Ash Observatory
(39.7321°N, 75.2004°W)
Time: 09:29:08
(UTC-05:00)

ISS - Visible Passes

Search period start: 17 December 2018 00:00
Search period end: 27 December 2018 00:00
Orbit: 401 x 408 km, 51.6° (Epoch: 18 December)

Date Brightness Start Highest point End Pass type
(mag) Time Alt. Az. Time Alt. Az. Time Alt. Az.
21 Dec -0.5 06:30:42 10° S 06:32:49 16° SE 06:34:56 10° E visible
23 Dec -2.3 06:21:29 10° SSW 06:24:35 39° SE 06:27:41 10° ENE visible
24 Dec -1.1 05:29:58 10° S 05:32:27 20° SE 05:34:59 10° E visible
25 Dec -0.4 04:40:06 10° SE 04:40:25 10° SE 04:41:01 10° ESE visible
25 Dec -3.9 06:13:09 10° SW 06:16:26 79° NW 06:19:44 10° NE visible
26 Dec -3.1 05:23:56 49° SSE 05:24:11 51° SE 05:27:24 10° ENE visible
